Starlink 3696

operational
NORAD ID: 51965 Int'l Des: 2022-025 Owner: SPXS Country: US Constellation: starlink
LEOCIRCULARSTARLINK_TYPE

Über Starlink 3696

Beschreibung wird geladen...

Live-Position

3D-Globus wird geladen...

Nächste Überflüge

Höhenverlauf

Altitude vs Time

uPlot chart will show altitude changes over time

Zweizeiliger Elementsatz

1 51965U 22025K 26034.42743583 .00000857 00000-0 76424-4 0 9995
2 51965 53.0557 189.6535 0001540 91.1339 268.9827 15.06400641215687
Epoch: 3. Feb. 2026 • Age: 14 hours

Aktueller Status

Höhe 550.0 km
Geschwindigkeit 7.59 km/s
Subsatellitenpunkt -9.05°S, 37.85°E
Startdatum 9. März 2022
Alter 3.9 years
Typ internet

Technische Details

Klassifizierung Payload
Masse 297.00 kg
Trockenmasse 275.00 kg
Gesamtmasse 297.00 kg
Länge 0.20 m
Durchmesser 2.80 m
Spannweite 9.00 m
Form Box + pan
Hersteller SPXS
Bus-Typ Starlink
Phasenstatus In Orbit
Besitzer/Staat SPXS/US

Große Konstellationen

Loading constellations...